Miscellaneous Local Product
Issued by NWS North Platte, NE

Home | Current Version | Previous Version | Text Only | Print | Product List | Glossary On
Versions: 1 2 3 4 5 6 7 8 9 10 11 12 13 14 15 16 17 18 19 20 21 22 23 24 25 26 27 28 29 30 31 32 33 34 35 36 37 38 39 40 41 42 43 44 45 46 47 48 49 50
000
AXUS43 KLBF 261510
MISLBF


WESTERN AND NORTH CENTRAL NEBRASKA HOURLY WEATHER ROUNDUP
NATIONAL WEATHER SERVICE NORTH PLATTE NE
1000 AM CDT THU APR 26 2018

NOTE: "FAIR" INDICATES FEW OR NO CLOUDS BELOW 12,000 FEET WITH NO
SIGNIFICANT WEATHER AND/OR OBSTRUCTIONS TO VISIBILITY.

NOTE: STATIONS NOT REPORTING VARIABLES SUCH AS SKY/WEATHER OR
PRESSURE ARE PROVIDED BY RAWS AND APRS NETWORKS AND ARE NOT UNDER
NATIONAL WEATHER SERVICE QUALITY CONTROL.

...OBSERVATIONS IN AND NEAR THE EASTERN PANHANDLE OF NEBRASKA...

CITY           SKY/WX    TMP DP  RH WIND       PRES   REMARKS
PINE RIDGE     SUNNY     50  34  54 N15       30.22R
GORDON         FAIR      48  34  57 N18G24    30.20R
CHADRON        SUNNY     54  32  43 N16G23    30.24R
ALLIANCE       SUNNY     51  33  50 N24G35    30.20R
SIDNEY         MOSUNNY   51  32  48 N24G30    30.21R
CRESCENT LAKE    N/A     51  33  50 N20G32      N/A
$$

...OBSERVATIONS IN NORTHERN NEBRASKA AND FAR SOUTHERN SOUTH DAKOTA...

CITY           SKY/WX    TMP DP  RH WIND       PRES   REMARKS
WINNER         FAIR      53  30  41 N23       30.13R
VALENTINE      SUNNY     52  30  43 N23G35    30.13R
AINSWORTH      SUNNY     50  32  49 N31G37    30.11R
O`NEILL        PTSUNNY   54  37  52 N29G38    30.00R
THEDFORD       MOSUNNY   51  34  52 N26G37    30.10R
BROKEN BOW     CLOUDY    51  36  56 N30G39    30.01R
ORD            CLOUDY    52  40  63 N17G23    29.99R
ALBION         SUNNY     55  40  57 NW13      29.96S
VALENTINE NWR    N/A     47  32  56 N20G30      N/A
HALSEY           N/A     49  34  56 N13G23      N/A
BUTTE            N/A     50  34  54 N24G39      N/A
CHAMBERS         N/A     53  35  50 N10         N/A
EWING            N/A     50  39  66 N20G26      N/A
$$

...OBSERVATIONS IN SOUTHWEST NEBRASKA AND FAR NORTHEAST COLORADO...

CITY           SKY/WX    TMP DP  RH WIND       PRES   REMARKS
WRAY           PTSUNNY   54  32  43 N32G40    30.14R
HOLYOKE        FAIR      54  34  47 N29G41    30.16R
IMPERIAL       PTSUNNY   52  35  52 NW26G41   30.12R
OGALLALA       CLOUDY    54  36  50 N25G31    30.15S
NORTH PLATTE   CLOUDY    52  35  52 N26G38    30.07R
MCCOOK         CLOUDY    53  38  56 N25G40    30.01R
LEXINGTON      PTSUNNY   57  39  50 N25       30.04R
STAPLETON        N/A     50  36  59 N7G21       N/A
GOTHENBURG       N/A     52  34  51 NW13        N/A
CALLAWAY         N/A     50  38  64 N16         N/A
$$

...OBSERVATIONS IN CENTRAL LINCOLN COUNTY AREA...

CITY           SKY/WX    TMP DP  RH WIND       PRES   REMARKS
N.P. AIRPORT   CLOUDY    52  35  52 N26G38    30.07R
N.P. DOWNTOWN    N/A     51  37  59 N13G23      N/A
N.P. SOUTHEAST   N/A     51  36  57 N13G25      N/A
N.P. HILLCREST   N/A     51  36  57 N26G40      N/A
$$

...OBSERVATIONS ACROSS THE ROCKIES AND WESTERN HIGH PLAINS...

CITY           SKY/WX    TMP DP  RH WIND       PRES   REMARKS
RAPID CITY     SUNNY     51  33  50 N16       30.23R
SCOTTSBLUFF    MOSUNNY   53  34  48 N21       30.24R
CHEYENNE       MOSUNNY   43  29  57 N22G31    30.27R
DENVER         CLOUDY    47  30  51 N24       30.27R
BERTHOUD PASS  CLOUDY    18   7  62 NW8G24    30.32S WCI   7
MONARCH PASS   SUNNY     30   9  40 N7G18     30.43R WCI  23
ASPEN          SUNNY     46  17  31 N6        30.26R
STEAMBOAT      FAIR      42  25  51 SE3       30.29S
LARAMIE        PTSUNNY   37  29  72 NW12      30.30R WCI  29
CASPER         SUNNY     44  32  62 CALM      30.31S
$$

...OBSERVATIONS ACROSS THE NORTHERN PLAINS...

CITY           SKY/WX    TMP DP  RH WIND       PRES   REMARKS
BISMARCK       SUNNY     51  33  50 NW9       30.15R
FARGO          FAIR      51  31  46 N28G37    30.02R
PIERRE         SUNNY     53  30  41 N16       30.14R
SIOUX FALLS    CLOUDY    51  36  56 N18G28    29.93R
$$

...OBSERVATIONS ACROSS THE CENTRAL AND SOUTHERN PLAINS...

CITY           SKY/WX    TMP DP  RH WIND       PRES   REMARKS
OMAHA          CLOUDY    56  38  50 SW6       29.97S
GRAND ISLAND   CLOUDY    52  40  63 W13       29.99R
KANSAS CITY    PTSUNNY   52  43  71 NW5       30.02S
WICHITA        MOSUNNY   53  44  71 VRB3      30.04F
DODGE CITY     CLOUDY    54  40  59 S7        29.99S
OKLAHOMA CITY  MOSUNNY   54  42  64 N6        30.04F
DALLAS         MOSUNNY   56  45  66 N8        30.04F
AMARILLO       SUNNY     60  38  43 W14       30.00R
$$




USA.gov is the U.S. government's official web portal to all federal, state and local government web resources and services.